Location: Moscow
(55.7500°N, 37.5830°E)
Time: 14:22:19
(UTC+03:00)

S-56A Canister/Altair - Pass Details

Date: 04 December 2021
Orbit: 633 x 2499 km, 38.9° (Epoch: 17 January)

Event Time Altitude Azimuth Distance (km) Brightness Sun altitude
Rises 00:13:22 0° 213° (SSW) 5,043 - -56.5°
Reaches altitude 10° 00:18:52 10° 194° (SSW) 3,615 - -56.5°
Maximum altitude 00:23:13 15° 164° (SSE) 2,903 - -56.5°
Drops below altitude 10° 00:26:53 10° 133° (SE) 2,935 - -56.4°
Sets 00:30:33 0° 109° (ESE) 3,583 - -56.4°
